星链-31393 (STARLINK-31393 )

导读

STARLINK-31393是美国太空探索技术公司SpaceX星链星座的卫星,于2024年3月16日发射升空,隶属于第二代星链网络。星链项目旨在构建全球卫星互联网通信系统,为全球偏远地区、海洋空域等场景提供低延迟宽带服务,该卫星的入轨进一步扩充了星链星座的在轨规模与服务覆盖能力。

Basic Information
目录编号:
59252
目录名称:
STARLINK-31393
国际标识:
2024-049X
轨道中心:
EARTH
卫星名称:
星链-31393
卫星全名:
星链-31393 (STARLINK-31393 )
卫星状态:
在轨 (已飞行902 天)
发射日期:
2024-03-16 UTC
国别 :
美国 (US)
星等 :
--
Orbit Information
数据来源 国际轨道数据 AOE轨道数据
星历时间 2026-09-04T06:18:11+0800
10小时前
查看轨道信息
2026-09-03T23:00:00+0800
18小时前
查看轨道信息
半长轴 6861.198km 6861.188km
偏心率 0.0000995 0.0001055
轨道倾角 43.003° 43.002°
近地点辐角 273.819° 256.346°
升交点赤经 202.375° 204.096°
平近点角 86.255° 228.398°
近地点 482.378km 482.327km
远地点 483.744km 483.775km
周期 94.267分钟 94.267分钟
每日圈数 15.275762 15.275795
Detailed Information
固有亮度:
5
最大亮度:
0.3
卫星平台:
Starlink v2.0 mini
覆盖范围:
全球
运营商:
太空探索技术公司
运营商所在国:
美国
制造商(研发单位):
太空探索技术公司
制造商所在国:
美国
使用方式:
暂无
Satellite Introduction
星链(Starlink)计划是由太空探索技术公司(SpaceX)提出的一个巨型低轨卫星互联网星座项目,计划在2019年至2024年间在太空搭建由约1.2万颗卫星组成的“星链”网络,其中1584颗将部署在地球上空550千米处的近地轨道,并从2020年开始工作。该卫星仍在工作。
2D Orbit Map
3D Orbit Map
Orbit Altitude Analysis Chart
Orbit Inclination Analysis Chart
Orbit Comprehensive Analysis Chart
View Comprehensive Chart
Conjunction Data List
Event ID Objects TCA Miss Dist (km) Collision Risk Probability Collision Risk Index (CRI) Action
CDM_260904-184905-925206-649121
2026-09-04T
18:49:25+0000
0.569 km
远距离
1.155505E-4 高风险 0.76
CDM_260905-042505-870105-925221
2026-09-05T
04:25:40+0000
1.232 km
极远距离
1.197667E-5 中风险 0.57
CDM_260904-171505-925206-649121
2026-09-04T
17:15:15+0000
1.894 km
极远距离
2.528872E-6 低风险 0.43